Time,TemperatureF,DewpointF,PressureIn,WindDirection,WindDirectionDegrees,WindSpeedMPH,WindSpeedGustMPH,Humidity,HourlyPrecipIn,Conditions,Clouds,dailyrainin,SoftwareType,DateUTC
2013-02-17 00:00:00,25.5,9.0,30.20,SE,143,7.0,9.0,49,0.00,,,0.00,meteohub,2013-02-17 07:00:00,
2013-02-17 00:05:00,25.5,9.0,30.20,SW,229,2.0,9.0,49,0.00,,,0.00,meteohub,2013-02-17 07:05:00,
2013-02-17 00:10:00,25.5,9.0,30.20,SSE,158,3.0,9.0,49,0.00,,,0.00,meteohub,2013-02-17 07:10:00,
2013-02-17 00:16:00,25.3,8.8,30.20,South,181,4.0,9.0,49,0.00,,,0.00,meteohub,2013-02-17 07:16:00,
2013-02-17 00:21:00,25.2,9.1,30.20,SE,146,3.0,9.0,50,0.00,,,0.00,meteohub,2013-02-17 07:21:00,
2013-02-17 00:26:00,25.2,8.6,30.19,SSW,198,3.0,9.0,49,0.00,,,0.00,meteohub,2013-02-17 07:26:00,
2013-02-17 00:31:00,25.2,8.6,30.19,South,174,7.0,9.0,49,0.00,,,0.00,meteohub,2013-02-17 07:31:00,
2013-02-17 00:36:00,25.2,8.6,30.19,WNW,291,2.0,8.0,49,0.00,,,0.00,meteohub,2013-02-17 07:36:00,
2013-02-17 00:41:00,25.2,8.6,30.19,SSE,162,2.0,8.0,49,0.00,,,0.00,meteohub,2013-02-17 07:41:00,
2013-02-17 00:47:00,25.2,8.2,30.19,SSE,167,4.0,8.0,48,0.00,,,0.00,meteohub,2013-02-17 07:47:00,
2013-02-17 00:52:00,25.2,8.2,30.19,SSE,156,1.0,8.0,48,0.00,,,0.00,meteohub,2013-02-17 07:52:00,
2013-02-17 00:57:00,25.2,8.2,30.19,ESE,115,2.0,8.0,48,0.00,,,0.00,meteohub,2013-02-17 07:57:00,
2013-02-17 01:02:00,25.0,8.6,30.19,South,169,3.0,8.0,49,0.00,,,0.00,meteohub,2013-02-17 08:02:00,
2013-02-17 01:07:00,25.0,8.6,30.18,SE,136,3.0,8.0,49,0.00,,,0.00,meteohub,2013-02-17 08:07:00,
2013-02-17 01:12:00,24.8,8.4,30.18,East,98,4.0,7.0,49,0.00,,,0.00,meteohub,2013-02-17 08:12:00,
2013-02-17 01:17:00,24.8,8.4,30.17,South,187,5.0,8.0,49,0.00,,,0.00,meteohub,2013-02-17 08:17:00,
2013-02-17 01:22:00,24.6,8.6,30.17,SE,133,4.0,8.0,50,0.00,,,0.00,meteohub,2013-02-17 08:22:00,
2013-02-17 01:27:00,24.4,9.0,30.17,ESE,120,5.0,9.0,51,0.00,,,0.00,meteohub,2013-02-17 08:27:00,
2013-02-17 01:32:00,24.3,8.8,30.16,South,173,6.0,10.0,51,0.00,,,0.00,meteohub,2013-02-17 08:32:00,
2013-02-17 01:37:00,24.1,9.0,30.16,SSE,165,5.0,11.0,52,0.00,,,0.00,meteohub,2013-02-17 08:37:00,
2013-02-17 01:42:00,23.5,9.0,30.16,SE,145,6.0,11.0,53,0.00,,,0.00,meteohub,2013-02-17 08:42:00,
2013-02-17 01:48:00,23.4,8.8,30.16,South,174,3.0,11.0,53,0.00,,,0.00,meteohub,2013-02-17 08:48:00,
2013-02-17 01:53:00,23.2,8.6,30.15,SE,126,5.0,10.0,53,0.00,,,0.00,meteohub,2013-02-17 08:53:00,
2013-02-17 01:58:00,23.2,9.0,30.15,South,170,5.0,11.0,54,0.00,,,0.00,meteohub,2013-02-17 08:58:00,
2013-02-17 02:03:00,23.2,8.6,30.15,SE,139,7.0,14.0,53,0.00,,,0.00,meteohub,2013-02-17 09:03:00,
2013-02-17 02:08:00,23.2,8.6,30.14,East,98,7.0,14.0,53,0.00,,,0.00,meteohub,2013-02-17 09:08:00,
2013-02-17 02:13:00,23.4,8.8,30.14,SSE,150,6.0,14.0,53,0.00,,,0.00,meteohub,2013-02-17 09:13:00,
2013-02-17 02:19:00,23.5,9.0,30.13,SE,145,10.0,13.0,53,0.00,,,0.00,meteohub,2013-02-17 09:19:00,
2013-02-17 02:24:00,23.7,8.6,30.13,SE,139,3.0,13.0,52,0.00,,,0.00,meteohub,2013-02-17 09:24:00,
2013-02-17 02:29:00,24.1,8.6,30.13,SE,146,6.0,11.0,51,0.00,,,0.00,meteohub,2013-02-17 09:29:00,
2013-02-17 02:34:00,24.1,8.6,30.13,SW,232,6.0,13.0,51,0.00,,,0.00,meteohub,2013-02-17 09:34:00,
2013-02-17 02:39:00,24.3,8.2,30.12,SSE,167,12.0,13.0,50,0.00,,,0.00,meteohub,2013-02-17 09:39:00,
2013-02-17 02:44:00,24.4,8.4,30.12,South,181,5.0,15.0,50,0.00,,,0.00,meteohub,2013-02-17 09:44:00,
2013-02-17 02:49:00,24.4,8.4,30.12,NNE,20,8.0,15.0,50,0.00,,,0.00,meteohub,2013-02-17 09:49:00,
2013-02-17 02:54:00,24.6,8.6,30.12,SSE,167,6.0,15.0,50,0.00,,,0.00,meteohub,2013-02-17 09:54:00,
2013-02-17 02:59:00,24.6,8.2,30.12,SE,139,4.0,13.0,49,0.00,,,0.00,meteohub,2013-02-17 09:59:00,
2013-02-17 03:04:00,24.8,8.4,30.11,South,179,3.0,14.0,49,0.00,,,0.00,meteohub,2013-02-17 10:04:00,
2013-02-17 03:09:00,24.6,8.2,30.12,South,170,9.0,14.0,49,0.00,,,0.00,meteohub,2013-02-17 10:09:00,
2013-02-17 03:15:00,24.6,8.2,30.11,South,181,8.0,14.0,49,0.00,,,0.00,meteohub,2013-02-17 10:15:00,
2013-02-17 03:20:00,24.4,8.4,30.11,SE,129,6.0,12.0,50,0.00,,,0.00,meteohub,2013-02-17 10:20:00,
2013-02-17 03:25:00,24.4,8.4,30.10,SW,229,7.0,11.0,50,0.00,,,0.00,meteohub,2013-02-17 10:25:00,
2013-02-17 03:30:00,24.3,8.2,30.10,SE,143,4.0,14.0,50,0.00,,,0.00,meteohub,2013-02-17 10:30:00,
2013-02-17 03:35:00,24.3,8.2,30.10,West,259,3.0,14.0,50,0.00,,,0.00,meteohub,2013-02-17 10:35:00,
2013-02-17 03:40:00,24.3,8.2,30.10,South,184,4.0,14.0,50,0.00,,,0.00,meteohub,2013-02-17 10:40:00,
2013-02-17 03:45:00,24.3,8.2,30.10,ESE,106,4.0,14.0,50,0.00,,,0.00,meteohub,2013-02-17 10:45:00,
2013-02-17 03:50:00,24.3,8.2,30.10,ESE,105,4.0,12.0,50,0.00,,,0.00,meteohub,2013-02-17 10:50:00,
2013-02-17 03:55:00,24.1,8.6,30.10,East,82,4.0,12.0,51,0.00,,,0.00,meteohub,2013-02-17 10:55:00,
2013-02-17 04:00:00,23.5,8.1,30.10,SSE,160,3.0,11.0,51,0.00,,,0.00,meteohub,2013-02-17 11:00:00,
2013-02-17 04:05:00,23.4,8.4,30.10,SSW,211,7.0,10.0,52,0.00,,,0.00,meteohub,2013-02-17 11:05:00,
2013-02-17 04:10:00,23.2,8.2,30.10,SSE,152,6.0,10.0,52,0.00,,,0.00,meteohub,2013-02-17 11:10:00,
2013-02-17 04:16:00,22.8,7.9,30.09,SE,139,3.0,10.0,52,0.00,,,0.00,meteohub,2013-02-17 11:16:00,
2013-02-17 04:21:00,22.6,8.1,30.10,SSE,162,3.0,8.0,53,0.00,,,0.00,meteohub,2013-02-17 11:21:00,
2013-02-17 04:26:00,22.5,7.9,30.10,WSW,246,3.0,8.0,53,0.00,,,0.00,meteohub,2013-02-17 11:26:00,
2013-02-17 04:31:00,22.1,8.1,30.10,SE,137,4.0,8.0,54,0.00,,,0.00,meteohub,2013-02-17 11:31:00,
2013-02-17 04:36:00,22.1,8.1,30.10,SE,133,4.0,8.0,54,0.00,,,0.00,meteohub,2013-02-17 11:36:00,
2013-02-17 04:41:00,22.3,8.2,30.10,East,93,3.0,7.0,54,0.00,,,0.00,meteohub,2013-02-17 11:41:00,
2013-02-17 04:46:00,22.3,7.7,30.10,SSW,195,5.0,9.0,53,0.00,,,0.00,meteohub,2013-02-17 11:46:00,
2013-02-17 04:51:00,22.3,7.7,30.10,SE,129,4.0,9.0,53,0.00,,,0.00,meteohub,2013-02-17 11:51:00,
2013-02-17 04:56:00,22.5,7.9,30.10,SSE,150,4.0,9.0,53,0.00,,,0.00,meteohub,2013-02-17 11:56:00,
2013-02-17 05:01:00,22.5,7.9,30.10,ESE,118,4.0,9.0,53,0.00,,,0.00,meteohub,2013-02-17 12:01:00,
2013-02-17 05:06:00,22.6,8.1,30.09,ENE,75,6.0,9.0,53,0.00,,,0.00,meteohub,2013-02-17 12:06:00,
2013-02-17 05:11:00,22.6,8.1,30.09,ESE,112,5.0,9.0,53,0.00,,,0.00,meteohub,2013-02-17 12:11:00,
2013-02-17 05:16:00,22.5,7.9,30.09,WSW,238,5.0,9.0,53,0.00,,,0.00,meteohub,2013-02-17 12:16:00,
2013-02-17 05:22:00,22.5,7.9,30.09,SE,131,3.0,8.0,53,0.00,,,0.00,meteohub,2013-02-17 12:22:00,
2013-02-17 05:27:00,22.3,7.7,30.09,SE,126,4.0,8.0,53,0.00,,,0.00,meteohub,2013-02-17 12:27:00,
2013-02-17 05:32:00,22.3,7.7,30.09,ESE,119,4.0,8.0,53,0.00,,,0.00,meteohub,2013-02-17 12:32:00,
2013-02-17 05:37:00,22.1,7.5,30.08,East,98,4.0,7.0,53,0.00,,,0.00,meteohub,2013-02-17 12:37:00,
2013-02-17 05:42:00,21.9,7.3,30.08,ESE,122,3.0,8.0,53,0.00,,,0.00,meteohub,2013-02-17 12:42:00,
2013-02-17 05:47:00,21.7,7.2,30.08,ESE,122,4.0,8.0,53,0.00,,,0.00,meteohub,2013-02-17 12:47:00,
2013-02-17 05:52:00,21.9,6.6,30.08,ESE,108,4.0,8.0,51,0.00,,,0.00,meteohub,2013-02-17 12:52:00,
2013-02-17 05:57:00,22.1,6.3,30.08,SE,133,4.0,6.0,50,0.00,,,0.00,meteohub,2013-02-17 12:57:00,
2013-02-17 06:02:00,22.1,5.4,30.08,ESE,114,4.0,6.0,48,0.00,,,0.00,meteohub,2013-02-17 13:02:00,
2013-02-17 06:07:00,22.3,5.5,30.07,SE,143,3.0,5.0,48,0.00,,,0.00,meteohub,2013-02-17 13:07:00,
2013-02-17 06:12:00,22.6,5.0,30.07,SE,145,3.0,6.0,46,0.00,,,0.00,meteohub,2013-02-17 13:12:00,
2013-02-17 06:17:00,22.6,4.5,30.08,SE,126,3.0,6.0,45,0.00,,,0.00,meteohub,2013-02-17 13:17:00,
2013-02-17 06:22:00,22.6,4.5,30.07,ESE,105,3.0,6.0,45,0.00,,,0.00,meteohub,2013-02-17 13:22:00,
2013-02-17 06:27:00,22.6,5.0,30.08,ESE,117,3.0,5.0,46,0.00,,,0.00,meteohub,2013-02-17 13:27:00,
2013-02-17 06:32:00,22.5,3.4,30.07,SE,124,5.0,5.0,43,0.00,,,0.00,meteohub,2013-02-17 13:32:00,
2013-02-17 06:37:00,22.8,1.6,30.07,ESE,110,5.0,6.0,39,0.00,,,0.00,meteohub,2013-02-17 13:37:00,
2013-02-17 06:42:00,23.5,1.6,30.07,East,96,4.0,6.0,38,0.00,,,0.00,meteohub,2013-02-17 13:42:00,
2013-02-17 06:47:00,23.7,1.2,30.07,ESE,113,4.0,6.0,37,0.00,,,0.00,meteohub,2013-02-17 13:47:00,
2013-02-17 06:52:00,23.7,1.2,30.07,ESE,110,4.0,6.0,37,0.00,,,0.00,meteohub,2013-02-17 13:52:00,
2013-02-17 06:57:00,23.7,0.7,30.07,ESE,110,3.0,6.0,36,0.00,,,0.00,meteohub,2013-02-17 13:57:00,
2013-02-17 07:02:00,23.7,1.2,30.07,ESE,122,2.0,5.0,37,0.00,,,0.00,meteohub,2013-02-17 14:02:00,
2013-02-17 07:07:00,23.4,3.6,30.07,ESE,106,3.0,4.0,42,0.00,,,0.00,meteohub,2013-02-17 14:07:00,
2013-02-17 07:12:00,23.4,4.6,30.07,ESE,113,2.0,4.0,44,0.00,,,0.00,meteohub,2013-02-17 14:12:00,
2013-02-17 07:17:00,23.2,5.0,30.07,SE,134,2.0,5.0,45,0.00,,,0.00,meteohub,2013-02-17 14:17:00,
2013-02-17 07:22:00,23.0,4.8,30.07,ESE,105,2.0,6.0,45,0.00,,,0.00,meteohub,2013-02-17 14:22:00,
2013-02-17 07:27:00,23.0,4.3,30.06,SSE,150,3.0,6.0,44,0.00,,,0.00,meteohub,2013-02-17 14:27:00,
2013-02-17 07:32:00,23.4,3.2,30.06,ENE,77,5.0,5.0,41,0.00,,,0.00,meteohub,2013-02-17 14:32:00,
2013-02-17 07:37:00,23.5,2.8,30.06,SSE,158,1.0,5.0,40,0.00,,,0.00,meteohub,2013-02-17 14:37:00,
2013-02-17 07:42:00,23.7,1.8,30.06,SW,218,0.0,5.0,38,0.00,,,0.00,meteohub,2013-02-17 14:42:00,
2013-02-17 07:47:00,24.3,1.8,30.06,SE,133,2.0,5.0,37,0.00,,,0.00,meteohub,2013-02-17 14:47:00,
2013-02-17 07:52:00,24.8,1.0,30.06,SE,136,1.0,4.0,35,0.00,,,0.00,meteohub,2013-02-17 14:52:00,
2013-02-17 07:57:00,25.3,0.9,30.06,SSE,148,2.0,5.0,34,0.00,,,0.00,meteohub,2013-02-17 14:57:00,
2013-02-17 08:02:00,26.1,0.9,30.06,SE,142,3.0,6.0,33,0.00,,,0.00,meteohub,2013-02-17 15:02:00,
2013-02-17 08:07:00,26.8,0.9,30.07,South,172,3.0,6.0,32,0.00,,,0.00,meteohub,2013-02-17 15:07:00,
2013-02-17 08:12:00,27.3,0.0,30.07,ESE,120,2.0,7.0,30,0.00,,,0.00,meteohub,2013-02-17 15:12:00,
2013-02-17 08:17:00,27.9,-0.2,30.06,ESE,122,4.0,7.0,29,0.00,,,0.00,meteohub,2013-02-17 15:17:00,
2013-02-17 08:22:00,28.8,-0.9,30.06,South,181,2.0,7.0,27,0.00,,,0.00,meteohub,2013-02-17 15:22:00,
2013-02-17 08:27:00,29.1,-2.4,30.06,SE,138,3.0,6.0,25,0.00,,,0.00,meteohub,2013-02-17 15:27:00,
2013-02-17 08:32:00,29.3,-3.1,30.06,ESE,115,4.0,8.0,24,0.00,,,0.00,meteohub,2013-02-17 15:32:00,
2013-02-17 08:37:00,29.3,-3.1,30.06,SE,126,2.0,8.0,24,0.00,,,0.00,meteohub,2013-02-17 15:37:00,
2013-02-17 08:42:00,29.1,-2.4,30.06,ESE,114,4.0,8.0,25,0.00,,,0.00,meteohub,2013-02-17 15:42:00,
2013-02-17 08:47:00,29.1,-2.4,30.05,SE,131,3.0,5.0,25,0.00,,,0.00,meteohub,2013-02-17 15:47:00,
2013-02-17 08:52:00,29.1,-2.4,30.05,ESE,117,3.0,5.0,25,0.00,,,0.00,meteohub,2013-02-17 15:52:00,
2013-02-17 08:57:00,29.3,-2.2,30.05,ESE,113,3.0,5.0,25,0.00,,,0.00,meteohub,2013-02-17 15:57:00,
2013-02-17 09:02:00,29.5,-2.0,30.05,SE,129,4.0,5.0,25,0.00,,,0.00,meteohub,2013-02-17 16:02:00,
2013-02-17 09:07:00,29.5,-2.0,30.04,ESE,120,4.0,5.0,25,0.00,,,0.00,meteohub,2013-02-17 16:07:00,
2013-02-17 09:12:00,29.7,-1.8,30.04,ESE,123,4.0,6.0,25,0.00,,,0.00,meteohub,2013-02-17 16:12:00,
2013-02-17 09:17:00,29.8,-3.5,30.04,ESE,120,3.0,6.0,23,0.00,,,0.00,meteohub,2013-02-17 16:17:00,
2013-02-17 09:22:00,30.2,-4.2,30.04,ESE,120,4.0,6.0,22,0.00,,,0.00,meteohub,2013-02-17 16:22:00,
2013-02-17 09:27:00,30.9,-0.8,30.04,ESE,110,4.0,6.0,25,0.00,,,0.00,meteohub,2013-02-17 16:27:00,
2013-02-17 09:32:00,31.6,-2.9,30.03,ESE,110,2.0,5.0,22,0.00,,,0.00,meteohub,2013-02-17 16:32:00,
2013-02-17 09:37:00,32.2,-5.4,30.03,ESE,105,4.0,5.0,19,0.00,,,0.00,meteohub,2013-02-17 16:37:00,
2013-02-17 09:42:00,32.7,-5.1,30.02,SE,127,4.0,5.0,19,0.00,,,0.00,meteohub,2013-02-17 16:42:00,
2013-02-17 09:47:00,33.3,-5.6,30.02,ESE,113,3.0,5.0,18,0.00,,,0.00,meteohub,2013-02-17 16:47:00,
2013-02-17 09:52:00,33.3,-5.6,30.02,SE,145,1.0,5.0,18,0.00,,,0.00,meteohub,2013-02-17 16:52:00,
2013-02-17 09:57:00,33.3,-5.6,30.01,ESE,113,3.0,5.0,18,0.00,,,0.00,meteohub,2013-02-17 16:57:00,
2013-02-17 10:02:00,33.1,-4.7,30.01,SE,126,2.0,5.0,19,0.00,,,0.00,meteohub,2013-02-17 17:02:00,
2013-02-17 10:07:00,33.3,-6.9,30.01,SE,143,2.0,5.0,17,0.00,,,0.00,meteohub,2013-02-17 17:07:00,
2013-02-17 10:12:00,33.4,-6.7,30.00,East,101,3.0,6.0,17,0.00,,,0.00,meteohub,2013-02-17 17:12:00,
2013-02-17 10:17:00,33.6,-7.8,30.00,SE,143,1.0,6.0,16,0.00,,,0.00,meteohub,2013-02-17 17:17:00,
2013-02-17 10:22:00,34.0,-7.6,29.99,ESE,113,1.0,6.0,16,0.00,,,0.00,meteohub,2013-02-17 17:22:00,
2013-02-17 10:27:00,34.5,-8.3,29.99,SE,130,1.0,6.0,15,0.00,,,0.00,meteohub,2013-02-17 17:27:00,
2013-02-17 10:32:00,35.4,-9.0,29.99,West,260,4.0,6.0,14,0.00,,,0.00,meteohub,2013-02-17 17:32:00,
2013-02-17 10:37:00,36.0,-11.7,29.99,SSW,208,2.0,6.0,12,0.00,,,0.00,meteohub,2013-02-17 17:37:00,
2013-02-17 10:42:00,36.1,-11.6,29.98,SE,125,5.0,6.0,12,0.00,,,0.00,meteohub,2013-02-17 17:42:00,
2013-02-17 10:47:00,36.3,-15.2,29.98,SSE,148,3.0,7.0,10,0.00,,,0.00,meteohub,2013-02-17 17:47:00,
2013-02-17 10:52:00,36.5,-11.4,29.97,SW,222,4.0,8.0,12,0.00,,,0.00,meteohub,2013-02-17 17:52:00,
2013-02-17 10:57:00,36.9,-9.4,29.97,South,176,1.0,9.0,13,0.00,,,0.00,meteohub,2013-02-17 17:57:00,
2013-02-17 11:02:00,37.0,-12.6,29.96,South,183,3.0,9.0,11,0.00,,,0.00,meteohub,2013-02-17 18:02:00,
2013-02-17 11:07:00,37.2,-12.5,29.96,NW,309,2.0,9.0,11,0.00,,,0.00,meteohub,2013-02-17 18:07:00,
2013-02-17 11:12:00,37.8,-13.9,29.96,SSE,155,4.0,9.0,10,0.00,,,0.00,meteohub,2013-02-17 18:12:00,
2013-02-17 11:17:00,37.6,-14.1,29.96,ESE,110,5.0,8.0,10,0.00,,,0.00,meteohub,2013-02-17 18:17:00,
2013-02-17 11:22:00,37.6,-16.2,29.95,SE,124,6.0,9.0,9,0.00,,,0.00,meteohub,2013-02-17 18:22:00,
2013-02-17 11:27:00,37.9,-11.9,29.94,SE,126,4.0,9.0,11,0.00,,,0.00,meteohub,2013-02-17 18:27:00,
2013-02-17 11:32:00,38.1,-15.7,29.94,South,184,4.0,9.0,9,0.00,,,0.00,meteohub,2013-02-17 18:32:00,
2013-02-17 11:37:00,38.3,-13.5,29.94,WSW,250,2.0,10.0,10,0.00,,,0.00,meteohub,2013-02-17 18:37:00,
2013-02-17 11:42:00,38.7,-15.3,29.93,South,172,4.0,10.0,9,0.00,,,0.00,meteohub,2013-02-17 18:42:00,
2013-02-17 11:47:00,38.8,-15.2,29.93,NNE,29,6.0,11.0,9,0.00,,,0.00,meteohub,2013-02-17 18:47:00,
2013-02-17 11:52:00,39.0,-13.0,29.92,SSE,162,4.0,11.0,10,0.00,,,0.00,meteohub,2013-02-17 18:52:00,
2013-02-17 11:57:00,39.4,-10.8,29.91,SSE,155,6.0,11.0,11,0.00,,,0.00,meteohub,2013-02-17 18:57:00,
2013-02-17 12:02:00,39.9,-16.8,29.91,ESE,108,2.0,11.0,8,0.00,,,0.00,meteohub,2013-02-17 19:02:00,
2013-02-17 12:07:00,39.9,-16.8,29.90,SE,132,5.0,10.0,8,0.00,,,0.00,meteohub,2013-02-17 19:07:00,
2013-02-17 12:12:00,39.7,-16.8,29.89,South,188,6.0,10.0,8,0.00,,,0.00,meteohub,2013-02-17 19:12:00,
2013-02-17 12:17:00,39.6,-17.0,29.89,SSW,207,3.0,15.0,8,0.00,,,0.00,meteohub,2013-02-17 19:17:00,
2013-02-17 12:22:00,39.7,-19.5,29.88,SW,232,7.0,15.0,7,0.00,,,0.00,meteohub,2013-02-17 19:22:00,
2013-02-17 12:27:00,39.7,-12.5,29.88,SW,222,11.0,14.0,10,0.00,,,0.00,meteohub,2013-02-17 19:27:00,
2013-02-17 12:32:00,39.9,-19.3,29.87,WSW,253,6.0,14.0,7,0.00,,,0.00,meteohub,2013-02-17 19:32:00,
2013-02-17 12:38:00,39.9,-19.3,29.86,South,173,8.0,13.0,7,0.00,,,0.00,meteohub,2013-02-17 19:38:00,
2013-02-17 12:43:00,39.9,-16.8,29.86,WSW,240,7.0,13.0,8,0.00,,,0.00,meteohub,2013-02-17 19:43:00,
2013-02-17 12:48:00,39.9,-16.8,29.85,South,186,3.0,14.0,8,0.00,,,0.00,meteohub,2013-02-17 19:48:00,
2013-02-17 12:53:00,39.9,-14.4,29.85,SE,139,9.0,14.0,9,0.00,,,0.00,meteohub,2013-02-17 19:53:00,
2013-02-17 12:58:00,39.7,-16.8,29.84,SSE,158,10.0,13.0,8,0.00,,,0.00,meteohub,2013-02-17 19:58:00,
2013-02-17 13:03:00,39.6,-17.0,29.83,SSE,162,5.0,17.0,8,0.00,,,0.00,meteohub,2013-02-17 20:03:00,
2013-02-17 13:08:00,39.6,-14.6,29.83,SW,225,6.0,17.0,9,0.00,,,0.00,meteohub,2013-02-17 20:08:00,
2013-02-17 13:13:00,39.4,-14.8,29.83,South,187,4.0,17.0,9,0.00,,,0.00,meteohub,2013-02-17 20:13:00,
2013-02-17 13:18:00,39.7,-12.5,29.83,SSE,155,4.0,15.0,10,0.00,,,0.00,meteohub,2013-02-17 20:18:00,
2013-02-17 13:23:00,39.7,-12.5,29.82,SE,142,10.0,16.0,10,0.00,,,0.00,meteohub,2013-02-17 20:23:00,
2013-02-17 13:28:00,39.7,-14.6,29.82,SE,129,9.0,16.0,9,0.00,,,0.00,meteohub,2013-02-17 20:28:00,
2013-02-17 13:34:00,39.6,-14.6,29.82,SSW,198,6.0,16.0,9,0.00,,,0.00,meteohub,2013-02-17 20:34:00,
2013-02-17 13:39:00,38.8,-13.2,29.81,East,101,5.0,16.0,10,0.00,,,0.00,meteohub,2013-02-17 20:39:00,
2013-02-17 13:44:00,38.3,-11.7,29.81,SSW,207,4.0,16.0,11,0.00,,,0.00,meteohub,2013-02-17 20:44:00,
2013-02-17 13:49:00,38.5,-11.6,29.81,NNE,33,6.0,16.0,11,0.00,,,0.00,meteohub,2013-02-17 20:49:00,
2013-02-17 13:54:00,38.7,-9.6,29.80,SW,233,7.0,16.0,12,0.00,,,0.00,meteohub,2013-02-17 20:54:00,
2013-02-17 13:59:00,38.8,-7.8,29.80,SSW,200,6.0,14.0,13,0.00,,,0.00,meteohub,2013-02-17 20:59:00,
2013-02-17 14:04:00,38.8,-7.8,29.79,SW,229,6.0,14.0,13,0.00,,,0.00,meteohub,2013-02-17 21:04:00,
2013-02-17 14:09:00,38.5,-8.1,29.79,South,172,1.0,14.0,13,0.00,,,0.00,meteohub,2013-02-17 21:09:00,
2013-02-17 14:14:00,38.8,-2.2,29.79,South,188,5.0,19.0,17,0.00,,,0.00,meteohub,2013-02-17 21:14:00,
2013-02-17 14:19:00,38.5,-5.3,29.78,South,173,3.0,19.0,15,0.00,,,0.00,meteohub,2013-02-17 21:19:00,
2013-02-17 14:24:00,38.1,-6.9,29.78,SSE,162,4.0,19.0,14,0.00,,,0.00,meteohub,2013-02-17 21:24:00,
2013-02-17 14:30:00,37.9,-7.1,29.78,SE,129,7.0,16.0,14,0.00,,,0.00,meteohub,2013-02-17 21:30:00,
2013-02-17 14:35:00,37.4,-7.4,29.77,SSE,160,6.0,16.0,14,0.00,,,0.00,meteohub,2013-02-17 21:35:00,
2013-02-17 14:40:00,37.6,-8.9,29.77,SSE,157,3.0,11.0,13,0.00,,,0.00,meteohub,2013-02-17 21:40:00,
2013-02-17 14:45:00,38.5,-9.8,29.77,SW,233,3.0,11.0,12,0.00,,,0.00,meteohub,2013-02-17 21:45:00,
2013-02-17 14:50:00,39.2,-9.2,29.77,South,176,7.0,10.0,12,0.00,,,0.00,meteohub,2013-02-17 21:50:00,
2013-02-17 14:55:00,39.4,-9.0,29.76,SSW,203,2.0,14.0,12,0.00,,,0.00,meteohub,2013-02-17 21:55:00,
2013-02-17 15:00:00,39.4,-7.4,29.75,SSW,197,8.0,15.0,13,0.00,,,0.00,meteohub,2013-02-17 22:00:00,
2013-02-17 15:05:00,39.4,-4.5,29.75,WNW,300,5.0,15.0,15,0.00,,,0.00,meteohub,2013-02-17 22:05:00,
2013-02-17 15:10:00,39.7,-4.2,29.75,SE,139,2.0,15.0,15,0.00,,,0.00,meteohub,2013-02-17 22:10:00,
2013-02-17 15:16:00,39.0,-3.5,29.75,SE,131,12.0,14.0,16,0.00,,,0.00,meteohub,2013-02-17 22:16:00,
2013-02-17 15:21:00,38.3,-1.5,29.74,SE,138,5.0,14.0,18,0.00,,,0.00,meteohub,2013-02-17 22:21:00,
2013-02-17 15:26:00,38.5,0.9,29.74,East,90,8.0,16.0,20,0.00,,,0.00,meteohub,2013-02-17 22:26:00,
2013-02-17 15:31:00,38.8,-2.2,29.74,WSW,246,8.0,16.0,17,0.00,,,0.00,meteohub,2013-02-17 22:31:00,
2013-02-17 15:36:00,39.2,-2.0,29.73,SW,219,7.0,16.0,17,0.00,,,0.00,meteohub,2013-02-17 22:36:00,
2013-02-17 15:41:00,39.0,-3.5,29.73,South,173,15.0,15.0,16,0.00,,,0.00,meteohub,2013-02-17 22:41:00,
2013-02-17 15:46:00,39.0,-0.9,29.73,SW,228,6.0,15.0,18,0.00,,,0.00,meteohub,2013-02-17 22:46:00,
2013-02-17 15:51:00,39.0,-3.5,29.73,South,188,6.0,15.0,16,0.00,,,0.00,meteohub,2013-02-17 22:51:00,
2013-02-17 15:57:00,38.8,-3.5,29.73,SE,139,5.0,16.0,16,0.00,,,0.00,meteohub,2013-02-17 22:57:00,
2013-02-17 16:02:00,38.7,-3.6,29.73,SE,129,8.0,16.0,16,0.00,,,0.00,meteohub,2013-02-17 23:02:00,
2013-02-17 16:07:00,38.5,-3.8,29.72,SE,141,7.0,16.0,16,0.00,,,0.00,meteohub,2013-02-17 23:07:00,
2013-02-17 16:12:00,38.1,-4.2,29.72,ESE,122,4.0,16.0,16,0.00,,,0.00,meteohub,2013-02-17 23:12:00,
2013-02-17 16:17:00,38.1,-4.2,29.72,SE,129,10.0,20.0,16,0.00,,,0.00,meteohub,2013-02-17 23:17:00,
2013-02-17 16:22:00,37.9,-1.8,29.72,SW,219,1.0,20.0,18,0.00,,,0.00,meteohub,2013-02-17 23:22:00,
2013-02-17 16:27:00,37.6,-3.3,29.72,SW,235,6.0,20.0,17,0.00,,,0.00,meteohub,2013-02-17 23:27:00,
2013-02-17 16:32:00,37.6,-2.2,29.72,ESE,117,8.0,19.0,18,0.00,,,0.00,meteohub,2013-02-17 23:32:00,
2013-02-17 16:37:00,37.6,-2.2,29.72,SSE,157,8.0,19.0,18,0.00,,,0.00,meteohub,2013-02-17 23:37:00,
2013-02-17 16:42:00,37.4,-1.1,29.73,SE,139,4.0,14.0,19,0.00,,,0.00,meteohub,2013-02-17 23:42:00,
2013-02-17 16:47:00,37.2,-1.3,29.72,SSE,150,3.0,14.0,19,0.00,,,0.00,meteohub,2013-02-17 23:47:00,
2013-02-17 16:52:00,37.0,-2.6,29.72,ESE,108,8.0,13.0,18,0.00,,,0.00,meteohub,2013-02-17 23:52:00,
2013-02-17 16:57:00,36.9,-1.7,29.72,SSE,155,2.0,15.0,19,0.00,,,0.00,meteohub,2013-02-17 23:57:00,
2013-02-17 17:02:00,36.5,-0.8,29.72,SW,225,7.0,16.0,20,0.00,,,0.00,meteohub,2013-02-18 00:02:00,
2013-02-17 17:07:00,36.3,-2.0,29.72,ESE,117,7.0,16.0,19,0.00,,,0.00,meteohub,2013-02-18 00:07:00,
2013-02-17 17:12:00,36.1,-2.2,29.73,SSW,198,3.0,14.0,19,0.00,,,0.00,meteohub,2013-02-18 00:12:00,
2013-02-17 17:17:00,36.0,-1.3,29.73,SW,221,5.0,14.0,20,0.00,,,0.00,meteohub,2013-02-18 00:17:00,
2013-02-17 17:23:00,35.8,-0.4,29.73,SSW,212,4.0,13.0,21,0.00,,,0.00,meteohub,2013-02-18 00:23:00,
2013-02-17 17:28:00,35.2,0.1,29.73,South,177,1.0,13.0,22,0.00,,,0.00,meteohub,2013-02-18 00:28:00,
2013-02-17 17:33:00,34.9,0.0,29.72,SSE,148,2.0,10.0,22,0.00,,,0.00,meteohub,2013-02-18 00:33:00,
2013-02-17 17:38:00,34.7,-1.3,29.72,ESE,117,5.0,8.0,21,0.00,,,0.00,meteohub,2013-02-18 00:38:00,
2013-02-17 17:43:00,34.5,-1.5,29.73,SSE,156,1.0,12.0,21,0.00,,,0.00,meteohub,2013-02-18 00:43:00,
2013-02-17 17:48:00,34.3,-1.5,29.73,SE,139,4.0,12.0,21,0.00,,,0.00,meteohub,2013-02-18 00:48:00,
2013-02-17 17:53:00,34.3,-1.5,29.73,ESE,113,3.0,11.0,21,0.00,,,0.00,meteohub,2013-02-18 00:53:00,
2013-02-17 17:59:00,34.0,-0.9,29.73,SE,136,5.0,9.0,22,0.00,,,0.00,meteohub,2013-02-18 00:59:00,
2013-02-17 18:04:00,33.6,-0.2,29.72,ESE,108,5.0,9.0,23,0.00,,,0.00,meteohub,2013-02-18 01:04:00,
2013-02-17 18:09:00,33.6,-1.1,29.72,SE,146,4.0,9.0,22,0.00,,,0.00,meteohub,2013-02-18 01:09:00,
2013-02-17 18:14:00,33.4,-0.4,29.72,SE,126,3.0,9.0,23,0.00,,,0.00,meteohub,2013-02-18 01:14:00,
2013-02-17 18:19:00,33.3,-0.6,29.73,ESE,113,4.0,9.0,23,0.00,,,0.00,meteohub,2013-02-18 01:19:00,
2013-02-17 18:24:00,33.1,-1.7,29.72,SE,133,3.0,7.0,22,0.00,,,0.00,meteohub,2013-02-18 01:24:00,
2013-02-17 18:29:00,33.1,-1.7,29.73,South,181,7.0,7.0,22,0.00,,,0.00,meteohub,2013-02-18 01:29:00,
2013-02-17 18:34:00,33.1,-1.7,29.73,ESE,108,2.0,7.0,22,0.00,,,0.00,meteohub,2013-02-18 01:34:00,
2013-02-17 18:39:00,33.1,-0.8,29.73,ESE,115,1.0,9.0,23,0.00,,,0.00,meteohub,2013-02-18 01:39:00,
2013-02-17 18:45:00,32.5,-1.1,29.73,ESE,113,1.0,9.0,23,0.00,,,0.00,meteohub,2013-02-18 01:45:00,
2013-02-17 18:50:00,32.2,-1.5,29.73,WSW,240,2.0,8.0,23,0.00,,,0.00,meteohub,2013-02-18 01:50:00,
2013-02-17 18:55:00,32.2,-1.5,29.72,SSE,164,0.0,7.0,23,0.00,,,0.00,meteohub,2013-02-18 01:55:00,
2013-02-17 19:00:00,31.8,0.0,29.72,ESE,115,1.0,5.0,25,0.00,,,0.00,meteohub,2013-02-18 02:00:00,
2013-02-17 19:05:00,31.6,-0.2,29.72,SSE,155,1.0,5.0,25,0.00,,,0.00,meteohub,2013-02-18 02:05:00,
2013-02-17 19:10:00,31.6,-0.2,29.72,SE,134,1.0,4.0,25,0.00,,,0.00,meteohub,2013-02-18 02:10:00,
2013-02-17 19:16:00,31.6,-0.2,29.72,ESE,115,1.0,6.0,25,0.00,,,0.00,meteohub,2013-02-18 02:16:00,
2013-02-17 19:21:00,31.3,0.3,29.72,ESE,113,2.0,6.0,26,0.00,,,0.00,meteohub,2013-02-18 02:21:00,
2013-02-17 19:26:00,30.9,0.0,29.72,ESE,116,4.0,5.0,26,0.00,,,0.00,meteohub,2013-02-18 02:26:00,
2013-02-17 19:31:00,30.9,0.0,29.72,South,173,1.0,6.0,26,0.00,,,0.00,meteohub,2013-02-18 02:31:00,
2013-02-17 19:36:00,30.7,0.7,29.72,ESE,109,0.0,6.0,27,0.00,,,0.00,meteohub,2013-02-18 02:36:00,
2013-02-17 19:41:00,30.4,1.2,29.72,SW,218,0.0,6.0,28,0.00,,,0.00,meteohub,2013-02-18 02:41:00,
2013-02-17 19:46:00,30.0,0.9,29.72,ESE,109,2.0,3.0,28,0.00,,,0.00,meteohub,2013-02-18 02:46:00,
2013-02-17 19:51:00,29.7,0.5,29.72,SE,131,2.0,4.0,28,0.00,,,0.00,meteohub,2013-02-18 02:51:00,
2013-02-17 19:57:00,29.7,0.5,29.72,South,170,0.0,4.0,28,0.00,,,0.00,meteohub,2013-02-18 02:57:00,
2013-02-17 20:02:00,29.7,0.5,29.72,ESE,115,2.0,4.0,28,0.00,,,0.00,meteohub,2013-02-18 03:02:00,
2013-02-17 20:07:00,29.8,0.7,29.72,SE,127,1.0,5.0,28,0.00,,,0.00,meteohub,2013-02-18 03:07:00,
2013-02-17 20:12:00,30.2,1.0,29.71,ESE,115,5.0,7.0,28,0.00,,,0.00,meteohub,2013-02-18 03:12:00,
2013-02-17 20:17:00,30.6,2.1,29.71,SE,139,0.0,12.0,29,0.00,,,0.00,meteohub,2013-02-18 03:17:00,
2013-02-17 20:22:00,30.4,1.9,29.71,SW,219,3.0,12.0,29,0.00,,,0.00,meteohub,2013-02-18 03:22:00,
2013-02-17 20:27:00,30.7,1.4,29.71,West,263,1.0,12.0,28,0.00,,,0.00,meteohub,2013-02-18 03:27:00,
2013-02-17 20:32:00,30.6,1.4,29.71,ESE,112,3.0,13.0,28,0.00,,,0.00,meteohub,2013-02-18 03:32:00,
2013-02-17 20:37:00,30.6,1.4,29.71,SSE,158,2.0,13.0,28,0.00,,,0.00,meteohub,2013-02-18 03:37:00,
2013-02-17 20:42:00,30.4,1.9,29.71,East,87,6.0,6.0,29,0.00,,,0.00,meteohub,2013-02-18 03:42:00,
2013-02-17 20:47:00,30.0,1.6,29.72,SE,125,1.0,6.0,29,0.00,,,0.00,meteohub,2013-02-18 03:47:00,
2013-02-17 20:52:00,30.0,1.6,29.72,SE,129,3.0,6.0,29,0.00,,,0.00,meteohub,2013-02-18 03:52:00,
2013-02-17 20:57:00,30.0,1.6,29.71,SE,134,0.0,6.0,29,0.00,,,0.00,meteohub,2013-02-18 03:57:00,
2013-02-17 21:02:00,30.2,2.5,29.71,East,101,0.0,5.0,30,0.00,,,0.00,meteohub,2013-02-18 04:02:00,
2013-02-17 21:07:00,30.0,2.3,29.71,SE,129,0.0,5.0,30,0.00,,,0.00,meteohub,2013-02-18 04:07:00,
2013-02-17 21:12:00,30.0,3.0,29.72,NNW,344,1.0,5.0,31,0.00,,,0.00,meteohub,2013-02-18 04:12:00,
2013-02-17 21:17:00,30.0,3.0,29.72,SSE,153,0.0,3.0,31,0.00,,,0.00,meteohub,2013-02-18 04:17:00,
2013-02-17 21:22:00,29.8,2.8,29.72,SSE,164,0.0,3.0,31,0.00,,,0.00,meteohub,2013-02-18 04:22:00,
2013-02-17 21:27:00,29.8,2.8,29.72,ESE,107,2.0,3.0,31,0.00,,,0.00,meteohub,2013-02-18 04:27:00,
2013-02-17 21:32:00,29.7,4.1,29.72,ESE,110,0.0,3.0,33,0.00,,,0.00,meteohub,2013-02-18 04:32:00,
2013-02-17 21:37:00,29.7,2.7,29.72,SE,143,2.0,3.0,31,0.00,,,0.00,meteohub,2013-02-18 04:37:00,
2013-02-17 21:42:00,29.5,3.9,29.72,ESE,115,2.0,3.0,33,0.00,,,0.00,meteohub,2013-02-18 04:42:00,
2013-02-17 21:47:00,29.5,3.9,29.71,ESE,114,1.0,3.0,33,0.00,,,0.00,meteohub,2013-02-18 04:47:00,
2013-02-17 21:52:00,29.3,3.7,29.71,SSW,207,0.0,3.0,33,0.00,,,0.00,meteohub,2013-02-18 04:52:00,
2013-02-17 21:57:00,29.3,4.5,29.71,ESE,120,0.0,3.0,34,0.00,,,0.00,meteohub,2013-02-18 04:57:00,
2013-02-17 22:00:00,29.1,3.6,29.71,ESE,117,1.0,3.0,33,0.00,,,0.00,meteohub,2013-02-18 05:00:00,
2013-02-17 22:01:00,29.1,4.3,29.71,ESE,117,1.0,3.0,34,0.00,,,0.00,meteohub,2013-02-18 05:01:00,
2013-02-17 22:04:00,29.1,3.6,29.71,ESE,117,0.0,3.0,33,0.00,,,0.00,meteohub,2013-02-18 05:04:00,
2013-02-17 22:09:00,28.9,4.1,29.71,SSE,148,0.0,3.0,34,0.00,,,0.00,meteohub,2013-02-18 05:09:00,
2013-02-17 22:14:00,28.9,4.1,29.71,WSW,245,0.0,2.0,34,0.00,,,0.00,meteohub,2013-02-18 05:14:00,
2013-02-17 22:19:00,28.9,4.1,29.71,SSW,202,0.0,2.0,34,0.00,,,0.00,meteohub,2013-02-18 05:19:00,
2013-02-17 22:24:00,28.9,4.1,29.71,South,178,0.0,2.0,34,0.00,,,0.00,meteohub,2013-02-18 05:24:00,
2013-02-17 22:29:00,28.8,3.9,29.71,SW,231,0.0,4.0,34,0.00,,,0.00,meteohub,2013-02-18 05:29:00,
2013-02-17 22:34:00,28.8,3.9,29.71,ESE,115,1.0,4.0,34,0.00,,,0.00,meteohub,2013-02-18 05:34:00,
2013-02-17 22:39:00,28.8,3.9,29.71,SSE,158,2.0,4.0,34,0.00,,,0.00,meteohub,2013-02-18 05:39:00,
2013-02-17 22:44:00,28.8,4.5,29.71,SSW,197,1.0,4.0,35,0.00,,,0.00,meteohub,2013-02-18 05:44:00,
2013-02-17 22:49:00,28.6,4.5,29.71,SE,138,1.0,8.0,35,0.00,,,0.00,meteohub,2013-02-18 05:49:00,
2013-02-17 22:54:00,28.6,5.0,29.71,SE,138,6.0,8.0,36,0.00,,,0.00,meteohub,2013-02-18 05:54:00,
2013-02-17 22:59:00,28.6,4.5,29.70,South,191,4.0,7.0,35,0.00,,,0.00,meteohub,2013-02-18 05:59:00,
2013-02-17 23:05:00,28.6,5.0,29.70,SSE,156,1.0,7.0,36,0.00,,,0.00,meteohub,2013-02-18 06:05:00,
2013-02-17 23:10:00,28.4,5.4,29.70,NNW,335,2.0,14.0,37,0.00,,,0.00,meteohub,2013-02-18 06:10:00,
2013-02-17 23:15:00,28.2,5.4,29.70,ESE,108,2.0,5.0,37,0.00,,,0.00,meteohub,2013-02-18 06:15:00,
2013-02-17 23:20:00,28.2,5.4,29.70,SE,146,2.0,7.0,37,0.00,,,0.00,meteohub,2013-02-18 06:20:00,
2013-02-17 23:25:00,28.2,5.4,29.70,SSE,149,2.0,7.0,37,0.00,,,0.00,meteohub,2013-02-18 06:25:00,
2013-02-17 23:30:00,28.0,5.2,29.70,SSW,212,3.0,7.0,37,0.00,,,0.00,meteohub,2013-02-18 06:30:00,
2013-02-17 23:35:00,27.9,5.5,29.70,ESE,113,2.0,6.0,38,0.00,,,0.00,meteohub,2013-02-18 06:35:00,
2013-02-17 23:41:00,27.7,5.4,29.70,SE,132,0.0,7.0,38,0.00,,,0.00,meteohub,2013-02-18 06:41:00,
2013-02-17 23:46:00,27.5,5.2,29.70,SE,129,0.0,7.0,38,0.00,,,0.00,meteohub,2013-02-18 06:46:00,
2013-02-17 23:51:00,27.3,5.0,29.70,SSW,195,1.0,8.0,38,0.00,,,0.00,meteohub,2013-02-18 06:51:00,
2013-02-17 23:56:00,27.1,5.5,29.70,North,1,1.0,8.0,39,0.00,,,0.00,meteohub,2013-02-18 06:56:00,